When you browse on this site, cookies collect data to enhance your experience and personalize the content and advertising you see.
Visit our Privacy Policy to learn more. By continuing to use the site, you agree to this use of cookies and data.
  • In Romania
  • List of Countries
  • For 7 days
  • Water Temperature
  • Satellite Maps
  • Weather Map
  • Weather Widgets
  • user-avatar
    Login

    Hourly Weather Nikolaevka

    Today, 26 March, Tuesday

    Time Temperature Precipitation Wind Pressure Humidity
    00:00 -4°C° 0 mm 6 mps 753 mmHg 89%
    01:00 -5°C° 0 mm 5 mps 753 mmHg 90%
    02:00 -5°C° 0 mm 5 mps 754 mmHg 90%
    03:00 -5°C° 0 mm 4 mps 755 mmHg 92%
    04:00 -5°C° 0 mm 4 mps 755 mmHg 92%
    05:00 -6°C° 0 mm 3 mps 756 mmHg 93%
    06:00 -6°C° 0 mm 3 mps 756 mmHg 93%
    07:00 -5°C° 0 mm 3 mps 757 mmHg 93%
    08:00 -4°C° 0 mm 4 mps 757 mmHg 92%
    09:00 -3°C° 0 mm 4 mps 758 mmHg 91%
    10:00 -2°C° 0 mm 4 mps 758 mmHg 94%
    11:00 -2°C° 0 mm 4 mps 758 mmHg 96%
    12:00 -1°C° 0 mm 4 mps 759 mmHg 99%
    13:00 -1°C° 0 mm 4 mps 759 mmHg 99%
    14:00 -1°C° 0 mm 4 mps 759 mmHg 98%
    15:00 -1°C° 0 mm 4 mps 758 mmHg 98%
    16:00 -1°C° 0.1 mm 5 mps 758 mmHg 95%
    17:00 -1°C° 0.1 mm 5 mps 758 mmHg 91%
    18:00 -2°C° 0.1 mm 6 mps 757 mmHg 88%
    19:00 -1°C° 0.9 mm 7 mps 757 mmHg 90%
    20:00 -1°C° 0.9 mm 7 mps 757 mmHg 92%
    21:00 -1°C° 0.9 mm 8 mps 757 mmHg 94%
    22:00 -1°C° 0.9 mm 7 mps 757 mmHg 95%
    23:00 -1°C° 0.9 mm 7 mps 757 mmHg 96%

    Tomorrow, 27 March, Wednesday

    Time Temperature Precipitation Wind Pressure Humidity
    00:00 -1°C° 0.9 mm 6 mps 757 mmHg 98%
    01:00 -1°C° 0.7 mm 6 mps 758 mmHg 98%
    02:00 0°C° 0.7 mm 5 mps 758 mmHg 98%
    03:00 0°C° 0.7 mm 4 mps 758 mmHg 99%
    04:00 0°C° 0.4 mm 4 mps 758 mmHg 99%
    05:00 0°C° 0.4 mm 4 mps 758 mmHg 99%
    06:00 0°C° 0.4 mm 3 mps 758 mmHg 99%
    07:00 -1°C° 0.6 mm 4 mps 759 mmHg 99%
    08:00 -1°C° 0.6 mm 4 mps 759 mmHg 99%
    09:00 -1°C° 0.6 mm 4 mps 759 mmHg 99%
    10:00 0°C° 0.1 mm 4 mps 759 mmHg 99%
    11:00 0°C° 0.1 mm 4 mps 759 mmHg 99%
    12:00 0°C° 0.1 mm 4 mps 759 mmHg 99%
    13:00 0°C° 0 mm 4 mps 759 mmHg 98%
    14:00 0°C° 0 mm 4 mps 759 mmHg 98%
    15:00 0°C° 0 mm 4 mps 759 mmHg 97%
    16:00 0°C° 0 mm 4 mps 759 mmHg 93%
    17:00 0°C° 0 mm 4 mps 759 mmHg 89%
    18:00 -1°C° 0 mm 4 mps 759 mmHg 85%
    19:00 0°C° 0 mm 3 mps 759 mmHg 85%
    20:00 0°C° 0 mm 3 mps 759 mmHg 86%
    21:00 0°C° 0 mm 3 mps 759 mmHg 86%
    22:00 -1°C° 0 mm 3 mps 759 mmHg 86%
    23:00 -2°C° 0 mm 4 mps 759 mmHg 85%

    Day after tomorrow, 28 March, Thursday

    Time Temperature Precipitation Wind Pressure Humidity
    00:00 -2°C° 0 mm 4 mps 759 mmHg 84%
    01:00 -1°C° 0 mm 3 mps 759 mmHg 85%
    02:00 -2°C° 0 mm 3 mps 758 mmHg 85%
    03:00 -2°C° 0 mm 3 mps 758 mmHg 85%
    04:00 -2°C° 0 mm 2 mps 758 mmHg 85%
    05:00 -2°C° 0 mm 2 mps 758 mmHg 85%
    06:00 -3°C° 0 mm 2 mps 758 mmHg 85%
    07:00 -2°C° 0 mm 2 mps 758 mmHg 87%
    08:00 -1°C° 0 mm 2 mps 758 mmHg 90%
    09:00 +1°C° 0 mm 2 mps 758 mmHg 92%
    10:00 +1°C° 0 mm 2 mps 757 mmHg 93%
    11:00 +3°C° 0 mm 1 mps 757 mmHg 95%
    12:00 +3°C° 0 mm 1 mps 757 mmHg 96%
    13:00 +3°C° 0 mm 1 mps 757 mmHg 97%
    14:00 +3°C° 0 mm 1 mps 757 mmHg 97%
    15:00 +3°C° 0 mm 1 mps 756 mmHg 97%
    16:00 +3°C° 0.1 mm 1 mps 756 mmHg 96%
    17:00 +1°C° 0.1 mm 2 mps 756 mmHg 95%
    18:00 +1°C° 0.1 mm 2 mps 756 mmHg 94%
    19:00 +1°C° 0.2 mm 2 mps 756 mmHg 93%
    20:00 +1°C° 0.2 mm 2 mps 755 mmHg 93%
    21:00 +1°C° 0.2 mm 2 mps 755 mmHg 93%
    22:00 +1°C° 0.8 mm 2 mps 755 mmHg 93%
    23:00 -1°C° 0.8 mm 2 mps 755 mmHg 93%

    29 March, Friday

    Time Temperature Precipitation Wind Pressure Humidity
    00:00 -1°C° 0.8 mm 2 mps 754 mmHg 94%
    01:00 -1°C° 1.6 mm 2 mps 754 mmHg 95%
    02:00 -1°C° 1.6 mm 2 mps 754 mmHg 96%
    03:00 -1°C° 1.6 mm 2 mps 754 mmHg 97%
    04:00 -1°C° 0.4 mm 2 mps 754 mmHg 97%
    05:00 -1°C° 0.4 mm 2 mps 754 mmHg 96%
    06:00 -1°C° 0.4 mm 3 mps 754 mmHg 96%
    07:00 -1°C° 0.1 mm 3 mps 754 mmHg 97%
    08:00 -1°C° 0.1 mm 3 mps 754 mmHg 98%
    09:00 -1°C° 0.1 mm 3 mps 755 mmHg 99%
    10:00 -1°C° 0.3 mm 3 mps 755 mmHg 99%
    11:00 0°C° 0.3 mm 3 mps 755 mmHg 99%
    12:00 0°C° 0.3 mm 3 mps 755 mmHg 99%
    13:00 0°C° 0.7 mm 3 mps 755 mmHg 98%
    14:00 -1°C° 0.7 mm 4 mps 755 mmHg 97%
    15:00 -2°C° 0.7 mm 5 mps 755 mmHg 95%
    16:00 -3°C° 0.7 mm 6 mps 756 mmHg 94%
    17:00 -3°C° 0.7 mm 6 mps 756 mmHg 92%
    18:00 -3°C° 0.7 mm 7 mps 756 mmHg 91%
    19:00 -3°C° 0.4 mm 7 mps 756 mmHg 90%
    20:00 -3°C° 0.4 mm 6 mps 757 mmHg 89%
    21:00 -3°C° 0.4 mm 6 mps 757 mmHg 88%
    22:00 -4°C° 0 mm 6 mps 758 mmHg 88%
    23:00 -5°C° 0 mm 5 mps 758 mmHg 88%

    30 March, Saturday

    Time Temperature Precipitation Wind Pressure Humidity
    00:00 -4°C° 0 mm 4 mps 758 mmHg 88%
    01:00 -5°C° 0 mm 4 mps 758 mmHg 90%
    02:00 -7°C° 0 mm 4 mps 759 mmHg 91%
    03:00 -8°C° 0 mm 4 mps 759 mmHg 92%
    04:00 -8°C° 0 mm 4 mps 759 mmHg 93%
    05:00 -7°C° 0 mm 3 mps 759 mmHg 93%
    06:00 -7°C° 0 mm 3 mps 760 mmHg 94%
    07:00 -7°C° 0 mm 4 mps 760 mmHg 94%
    08:00 -5°C° 0 mm 4 mps 760 mmHg 93%
    09:00 -5°C° 0 mm 5 mps 760 mmHg 93%
    10:00 -4°C° 0 mm 5 mps 760 mmHg 94%
    11:00 -2°C° 0 mm 5 mps 759 mmHg 95%
    12:00 -2°C° 0 mm 5 mps 759 mmHg 96%
    13:00 -1°C° 0.1 mm 5 mps 759 mmHg 97%
    14:00 -1°C° 0.1 mm 5 mps 759 mmHg 97%
    15:00 -1°C° 0.1 mm 5 mps 758 mmHg 98%
    16:00 -1°C° 0 mm 5 mps 758 mmHg 97%
    17:00 -1°C° 0 mm 5 mps 758 mmHg 96%
    18:00 -1°C° 0 mm 5 mps 758 mmHg 95%
    19:00 -1°C° 0 mm 5 mps 758 mmHg 96%
    20:00 -1°C° 0 mm 5 mps 758 mmHg 96%
    21:00 -1°C° 0 mm 4 mps 759 mmHg 96%
    22:00 -1°C° 0 mm 4 mps 758 mmHg 97%
    23:00 -1°C° 0 mm 4 mps 758 mmHg 97%

    31 March, Sunday

    Time Temperature Precipitation Wind Pressure Humidity
    00:00 -1°C° 0 mm 4 mps 758 mmHg 97%
    01:00 -1°C° 0 mm 4 mps 758 mmHg 97%
    02:00 -1°C° 0 mm 4 mps 758 mmHg 97%
    03:00 -1°C° 0 mm 4 mps 758 mmHg 97%
    04:00 -1°C° 0 mm 4 mps 759 mmHg 97%
    05:00 -1°C° 0 mm 4 mps 759 mmHg 98%
    06:00 -1°C° 0 mm 4 mps 759 mmHg 98%
    07:00 0°C° 0 mm 4 mps 759 mmHg 98%
    08:00 +1°C° 0 mm 3 mps 759 mmHg 98%
    09:00 +1°C° 0 mm 3 mps 760 mmHg 98%
    10:00 +1°C° 0 mm 3 mps 760 mmHg 98%
    11:00 0°C° 0 mm 4 mps 760 mmHg 98%
    12:00 +1°C° 0 mm 4 mps 760 mmHg 98%
    13:00 +1°C° 0 mm 4 mps 760 mmHg 98%
    14:00 +1°C° 0 mm 4 mps 760 mmHg 98%
    15:00 +1°C° 0 mm 4 mps 760 mmHg 98%
    16:00 0°C° 0 mm 4 mps 760 mmHg 98%
    17:00 +1°C° 0 mm 3 mps 760 mmHg 97%
    18:00 +1°C° 0 mm 3 mps 760 mmHg 97%
    19:00 +1°C° 0 mm 3 mps 760 mmHg 98%
    20:00 0°C° 0 mm 4 mps 760 mmHg 98%
    21:00 0°C° 0 mm 4 mps 760 mmHg 98%
    22:00 0°C° 0 mm 4 mps 760 mmHg 98%
    23:00 0°C° 0 mm 4 mps 760 mmHg 98%
    Show more